Year,Month,Day,Hour,Minute,Value (Times are PST for temperature in C)
2015,11,17,00,00,8.40
2015,11,17,00,01,8.40
2015,11,17,00,02,8.40
2015,11,17,00,03,8.50
2015,11,17,00,04,8.50
2015,11,17,00,05,8.60
2015,11,17,00,06,8.60
2015,11,17,00,07,8.60
2015,11,17,00,08,8.70
2015,11,17,00,09,8.70
2015,11,17,00,10,8.70
2015,11,17,00,11,8.70
2015,11,17,00,12,8.70
2015,11,17,00,13,8.70
2015,11,17,00,14,8.70
2015,11,17,00,15,8.70
2015,11,17,00,16,8.70
2015,11,17,00,17,8.70
2015,11,17,00,18,8.70
2015,11,17,00,19,8.70
2015,11,17,00,20,8.80
2015,11,17,00,21,8.80
2015,11,17,00,22,8.80
2015,11,17,00,23,8.80
2015,11,17,00,24,8.80
2015,11,17,00,25,8.90
2015,11,17,00,26,8.90
2015,11,17,00,27,8.90
2015,11,17,00,28,8.90
2015,11,17,00,29,8.90
2015,11,17,00,30,8.90
2015,11,17,00,31,8.90
2015,11,17,00,32,9.00
2015,11,17,00,33,9.10
2015,11,17,00,34,9.10
2015,11,17,00,35,9.10
2015,11,17,00,36,9.10
2015,11,17,00,37,9.20
2015,11,17,00,38,9.20
2015,11,17,00,39,9.20
2015,11,17,00,40,9.30
2015,11,17,00,41,9.30
2015,11,17,00,42,9.30
2015,11,17,00,43,9.30
2015,11,17,00,44,9.40
2015,11,17,00,45,9.40
2015,11,17,00,46,9.40
2015,11,17,00,47,9.40
2015,11,17,00,48,9.40
2015,11,17,00,49,9.50
2015,11,17,00,50,9.50
2015,11,17,00,51,9.40
2015,11,17,00,52,9.40
2015,11,17,00,53,9.40
2015,11,17,00,54,9.40
2015,11,17,00,55,9.40
2015,11,17,00,56,9.40
2015,11,17,00,57,9.40
2015,11,17,00,58,9.30
2015,11,17,00,59,9.30
2015,11,17,01,00,9.30
2015,11,17,01,01,9.30
2015,11,17,01,02,9.30
2015,11,17,01,03,9.30
2015,11,17,01,04,9.30
2015,11,17,01,05,9.30
2015,11,17,01,06,9.30
2015,11,17,01,07,9.30
2015,11,17,01,08,9.30
2015,11,17,01,09,9.30
2015,11,17,01,10,9.30
2015,11,17,01,11,9.30
2015,11,17,01,12,9.30
2015,11,17,01,13,9.30
2015,11,17,01,14,9.30
2015,11,17,01,15,9.30
2015,11,17,01,16,9.30
2015,11,17,01,17,9.30
2015,11,17,01,18,9.30
2015,11,17,01,19,9.30
2015,11,17,01,20,9.30
2015,11,17,01,21,9.30
2015,11,17,01,22,9.30
2015,11,17,01,23,9.30
2015,11,17,01,24,9.30
2015,11,17,01,25,9.30
2015,11,17,01,26,9.30
2015,11,17,01,27,9.40
2015,11,17,01,28,9.40
2015,11,17,01,29,9.40
2015,11,17,01,30,9.40
2015,11,17,01,31,9.50
2015,11,17,01,32,9.50
2015,11,17,01,33,9.50
2015,11,17,01,34,9.50
2015,11,17,01,35,9.50
2015,11,17,01,36,9.50
2015,11,17,01,37,9.50
2015,11,17,01,38,9.50
2015,11,17,01,39,9.50
2015,11,17,01,40,9.50
2015,11,17,01,41,9.50
2015,11,17,01,42,9.50
2015,11,17,01,43,9.50
2015,11,17,01,44,9.40
2015,11,17,01,45,9.40
2015,11,17,01,46,9.40
2015,11,17,01,47,9.40
2015,11,17,01,48,9.40
2015,11,17,01,49,9.40
2015,11,17,01,50,9.40
2015,11,17,01,51,9.30
2015,11,17,01,52,9.30
2015,11,17,01,53,9.30
2015,11,17,01,54,9.30
2015,11,17,01,55,9.30
2015,11,17,01,56,9.20
2015,11,17,01,57,9.20
2015,11,17,01,58,9.20
2015,11,17,01,59,9.10
2015,11,17,02,00,9.10
2015,11,17,02,01,9.00
2015,11,17,02,02,9.00
2015,11,17,02,03,9.00
2015,11,17,02,04,8.90
2015,11,17,02,05,8.90
2015,11,17,02,06,8.90
2015,11,17,02,07,8.90
2015,11,17,02,08,8.80
2015,11,17,02,09,8.80
2015,11,17,02,10,8.80
2015,11,17,02,11,8.80
2015,11,17,02,12,8.80
2015,11,17,02,13,8.80
2015,11,17,02,14,8.70
2015,11,17,02,15,8.70
2015,11,17,02,16,8.70
2015,11,17,02,17,8.70
2015,11,17,02,18,8.70
2015,11,17,02,19,8.70
2015,11,17,02,20,8.70
2015,11,17,02,21,8.60
2015,11,17,02,22,8.60
2015,11,17,02,23,8.60
2015,11,17,02,24,8.60
2015,11,17,02,25,8.60
2015,11,17,02,26,8.60
2015,11,17,02,27,8.50
2015,11,17,02,28,8.50
2015,11,17,02,29,8.50
2015,11,17,02,30,8.50
2015,11,17,02,31,8.50
2015,11,17,02,32,8.50
2015,11,17,02,33,8.40
2015,11,17,02,34,8.50
2015,11,17,02,35,8.50
2015,11,17,02,36,8.50
2015,11,17,02,37,8.50
2015,11,17,02,38,8.50
2015,11,17,02,39,8.50
2015,11,17,02,40,8.50
2015,11,17,02,41,8.40
2015,11,17,02,42,8.40
2015,11,17,02,43,8.40
2015,11,17,02,44,8.40
2015,11,17,02,45,8.40
2015,11,17,02,46,8.40
2015,11,17,02,47,8.40
2015,11,17,02,48,8.40
2015,11,17,02,49,8.40
2015,11,17,02,50,8.40
2015,11,17,02,51,8.30
2015,11,17,02,52,8.30
2015,11,17,02,53,8.30
2015,11,17,02,54,8.30
2015,11,17,02,55,8.30
2015,11,17,02,56,8.30
2015,11,17,02,57,8.30
2015,11,17,02,58,8.30
2015,11,17,02,59,8.30
2015,11,17,03,00,8.30
2015,11,17,03,01,8.30
2015,11,17,03,02,8.20
2015,11,17,03,03,8.20
2015,11,17,03,04,8.20
2015,11,17,03,05,8.20
2015,11,17,03,06,8.20
2015,11,17,03,07,8.20
2015,11,17,03,08,8.20
2015,11,17,03,09,8.20
2015,11,17,03,10,8.20
2015,11,17,03,11,8.20
2015,11,17,03,12,8.20
2015,11,17,03,13,8.20
2015,11,17,03,14,8.20
2015,11,17,03,15,8.20
2015,11,17,03,16,8.20
2015,11,17,03,17,8.20
2015,11,17,03,18,8.20
2015,11,17,03,19,8.20
2015,11,17,03,20,8.20
2015,11,17,03,21,8.10
2015,11,17,03,22,8.10
2015,11,17,03,23,8.00
2015,11,17,03,24,8.00
2015,11,17,03,25,7.90
2015,11,17,03,26,7.90
2015,11,17,03,27,7.90
2015,11,17,03,28,7.90
2015,11,17,03,29,7.90
2015,11,17,03,30,7.90
2015,11,17,03,31,7.90
2015,11,17,03,32,7.90
2015,11,17,03,33,7.80
2015,11,17,03,34,7.80
2015,11,17,03,35,7.80
2015,11,17,03,36,7.90
2015,11,17,03,37,7.80
2015,11,17,03,38,7.80
2015,11,17,03,39,7.90
2015,11,17,03,40,7.90
2015,11,17,03,41,7.90
2015,11,17,03,42,7.90
2015,11,17,03,43,7.90
2015,11,17,03,44,7.90
2015,11,17,03,45,7.90
2015,11,17,03,46,7.90
2015,11,17,03,47,7.90
2015,11,17,03,48,7.90
2015,11,17,03,49,7.90
2015,11,17,03,50,7.90
2015,11,17,03,51,7.90
2015,11,17,03,52,7.90
2015,11,17,03,53,7.90
2015,11,17,03,54,7.90
2015,11,17,03,55,7.90
2015,11,17,03,56,7.90
2015,11,17,03,57,7.90
2015,11,17,03,58,7.90
2015,11,17,03,59,7.90
2015,11,17,04,00,7.90
2015,11,17,04,01,7.90
2015,11,17,04,02,7.90
2015,11,17,04,03,7.90
2015,11,17,04,04,7.90
2015,11,17,04,05,7.90
2015,11,17,04,06,7.90
2015,11,17,04,07,7.90
2015,11,17,04,08,7.90
2015,11,17,04,09,7.90
2015,11,17,04,10,7.90
2015,11,17,04,11,7.90
2015,11,17,04,12,7.90
2015,11,17,04,13,7.90
2015,11,17,04,14,7.90
2015,11,17,04,15,7.90
2015,11,17,04,16,7.90
2015,11,17,04,17,7.90
2015,11,17,04,18,7.90
2015,11,17,04,19,7.90
2015,11,17,04,20,7.90
2015,11,17,04,21,7.90
2015,11,17,04,22,7.90
2015,11,17,04,23,7.90
2015,11,17,04,24,7.90
2015,11,17,04,25,7.90
2015,11,17,04,26,7.90
2015,11,17,04,27,7.90
2015,11,17,04,28,7.90
2015,11,17,04,29,7.90
2015,11,17,04,30,7.90
2015,11,17,04,31,7.90
2015,11,17,04,32,7.80
2015,11,17,04,33,7.80
2015,11,17,04,34,7.80
2015,11,17,04,35,7.80
2015,11,17,04,36,7.80
2015,11,17,04,37,7.80
2015,11,17,04,38,7.70
2015,11,17,04,39,7.70
2015,11,17,04,40,7.70
2015,11,17,04,41,7.70
2015,11,17,04,42,7.70
2015,11,17,04,43,7.60
2015,11,17,04,44,7.60
2015,11,17,04,45,7.60
2015,11,17,04,46,7.60
2015,11,17,04,47,7.60
2015,11,17,04,48,7.60
2015,11,17,04,49,7.60
2015,11,17,04,50,7.50
2015,11,17,04,51,7.50
2015,11,17,04,52,7.50
2015,11,17,04,53,7.50
2015,11,17,04,54,7.50
2015,11,17,04,55,7.50
2015,11,17,04,56,7.50
2015,11,17,04,57,7.50
2015,11,17,04,58,7.50
2015,11,17,04,59,7.50
2015,11,17,05,00,7.50
2015,11,17,05,01,7.50
2015,11,17,05,02,7.50
2015,11,17,05,03,7.50
2015,11,17,05,04,7.50
2015,11,17,05,05,7.50
2015,11,17,05,06,7.40
2015,11,17,05,07,7.40
2015,11,17,05,08,7.50
2015,11,17,05,09,7.40
2015,11,17,05,10,7.40
2015,11,17,05,11,7.40
2015,11,17,05,12,7.40
2015,11,17,05,13,7.40
2015,11,17,05,14,7.40
2015,11,17,05,15,7.40
2015,11,17,05,16,7.50
2015,11,17,05,17,7.50
2015,11,17,05,18,7.40
2015,11,17,05,19,7.40
2015,11,17,05,20,7.40
2015,11,17,05,21,7.40
2015,11,17,05,22,7.40
2015,11,17,05,23,7.50
2015,11,17,05,24,7.50
2015,11,17,05,25,7.50
2015,11,17,05,26,7.50
2015,11,17,05,27,7.70
2015,11,17,05,28,7.80
2015,11,17,05,29,8.10
2015,11,17,05,30,8.30
2015,11,17,05,31,8.60
2015,11,17,05,32,8.80
2015,11,17,05,33,8.90
2015,11,17,05,34,9.20
2015,11,17,05,35,9.40
2015,11,17,05,36,9.50
2015,11,17,05,37,9.80
2015,11,17,05,38,10.10
2015,11,17,05,39,10.40
2015,11,17,05,40,10.80
2015,11,17,05,41,10.90
2015,11,17,05,42,11.10
2015,11,17,05,43,11.20
2015,11,17,05,44,11.30
2015,11,17,05,45,11.40
2015,11,17,05,46,11.50
2015,11,17,05,47,11.50
2015,11,17,05,48,11.60
2015,11,17,05,49,11.60
2015,11,17,05,50,11.60
2015,11,17,05,51,11.70
2015,11,17,05,52,11.70
2015,11,17,05,53,11.80
2015,11,17,05,54,11.80
2015,11,17,05,55,11.80
2015,11,17,05,56,11.90
2015,11,17,05,57,11.90
2015,11,17,05,58,11.90
2015,11,17,05,59,11.90
2015,11,17,06,00,11.90
2015,11,17,06,01,12.00
2015,11,17,06,02,12.00
2015,11,17,06,03,12.00
2015,11,17,06,04,12.10
2015,11,17,06,05,12.10
2015,11,17,06,06,12.10
2015,11,17,06,07,12.10
2015,11,17,06,08,12.10
2015,11,17,06,09,12.10
2015,11,17,06,10,12.10
2015,11,17,06,11,12.10
2015,11,17,06,12,12.10
2015,11,17,06,13,12.20
2015,11,17,06,14,12.20
2015,11,17,06,15,12.20
2015,11,17,06,16,12.20
2015,11,17,06,17,12.20
2015,11,17,06,18,12.20
2015,11,17,06,19,12.20
2015,11,17,06,20,12.20
2015,11,17,06,21,12.20
2015,11,17,06,22,12.20
2015,11,17,06,23,12.20
2015,11,17,06,24,12.20
2015,11,17,06,25,12.20
2015,11,17,06,26,12.20
2015,11,17,06,27,12.20
2015,11,17,06,28,12.20
2015,11,17,06,29,12.20
2015,11,17,06,30,12.20
2015,11,17,06,31,12.20
2015,11,17,06,32,12.20
2015,11,17,06,33,12.10
2015,11,17,06,34,12.10
2015,11,17,06,35,12.10
2015,11,17,06,36,12.10
2015,11,17,06,37,12.10
2015,11,17,06,38,12.10
2015,11,17,06,39,12.20
2015,11,17,06,40,12.20
2015,11,17,06,41,12.20
2015,11,17,06,42,12.20
2015,11,17,06,43,12.10
2015,11,17,06,44,12.10
2015,11,17,06,45,12.20
2015,11,17,06,46,12.10
2015,11,17,06,47,12.10
2015,11,17,06,48,12.10
2015,11,17,06,49,12.10
2015,11,17,06,50,12.10
2015,11,17,06,51,12.10
2015,11,17,06,52,12.10
2015,11,17,06,53,12.10
2015,11,17,06,54,12.10
2015,11,17,06,55,12.20
2015,11,17,06,56,12.20
2015,11,17,06,57,12.10
2015,11,17,06,58,12.10
2015,11,17,06,59,12.20
2015,11,17,07,00,12.20
2015,11,17,07,01,12.20
2015,11,17,07,02,12.20
2015,11,17,07,03,12.20
2015,11,17,07,04,12.20
2015,11,17,07,05,12.20
2015,11,17,07,06,12.10
2015,11,17,07,07,12.10
2015,11,17,07,08,12.10
2015,11,17,07,09,12.10
2015,11,17,07,10,12.10
2015,11,17,07,11,12.10
2015,11,17,07,12,12.10
2015,11,17,07,13,12.10
2015,11,17,07,14,12.10
2015,11,17,07,15,12.10
2015,11,17,07,16,12.10
2015,11,17,07,17,12.10
2015,11,17,07,18,12.10
2015,11,17,07,19,12.10
2015,11,17,07,20,12.10
2015,11,17,07,21,12.10
2015,11,17,07,22,12.10
2015,11,17,07,23,12.10
2015,11,17,07,24,12.20
2015,11,17,07,25,12.20
2015,11,17,07,26,12.20
2015,11,17,07,27,12.20
2015,11,17,07,28,12.30
2015,11,17,07,29,12.30
2015,11,17,07,30,12.30
2015,11,17,07,31,12.30
2015,11,17,07,32,12.40
2015,11,17,07,33,12.40
2015,11,17,07,34,12.40
2015,11,17,07,35,12.40
2015,11,17,07,36,12.40
2015,11,17,07,37,12.40
2015,11,17,07,38,12.40
2015,11,17,07,39,12.40
2015,11,17,07,40,12.40
2015,11,17,07,41,12.40
2015,11,17,07,42,12.30
2015,11,17,07,43,12.40
2015,11,17,07,44,12.40
2015,11,17,07,45,12.40
2015,11,17,07,46,12.40
2015,11,17,07,47,12.40
2015,11,17,07,48,12.40
2015,11,17,07,49,12.40
2015,11,17,07,50,12.40
2015,11,17,07,51,12.50
2015,11,17,07,52,12.50
2015,11,17,07,53,12.60
2015,11,17,07,54,12.60
2015,11,17,07,55,12.60
2015,11,17,07,56,12.60
2015,11,17,07,57,12.60
2015,11,17,07,58,12.60
2015,11,17,07,59,12.50
2015,11,17,08,00,12.50
2015,11,17,08,01,12.50
2015,11,17,08,02,12.50
2015,11,17,08,03,12.50
2015,11,17,08,04,12.50
2015,11,17,08,05,12.50
2015,11,17,08,06,12.50
2015,11,17,08,07,12.50
2015,11,17,08,08,12.50
2015,11,17,08,09,12.50
2015,11,17,08,10,12.60
2015,11,17,08,11,12.60
2015,11,17,08,12,12.60
2015,11,17,08,13,12.60
2015,11,17,08,14,12.60
2015,11,17,08,15,12.60
2015,11,17,08,16,12.60
2015,11,17,08,17,12.60
2015,11,17,08,18,12.60
2015,11,17,08,19,12.60
2015,11,17,08,20,12.60
2015,11,17,08,21,12.60
2015,11,17,08,22,12.50
2015,11,17,08,23,12.50
2015,11,17,08,24,12.50
2015,11,17,08,25,12.50
2015,11,17,08,26,12.50
2015,11,17,08,27,12.50
2015,11,17,08,28,12.50
2015,11,17,08,29,12.50
2015,11,17,08,30,12.50
2015,11,17,08,31,12.50
2015,11,17,08,32,12.50
2015,11,17,08,33,12.50
2015,11,17,08,34,12.60
2015,11,17,08,35,12.60
2015,11,17,08,36,12.60
2015,11,17,08,37,12.60
2015,11,17,08,38,12.60
2015,11,17,08,39,12.70
2015,11,17,08,40,12.70
2015,11,17,08,41,12.70
2015,11,17,08,42,12.80
2015,11,17,08,43,12.80
2015,11,17,08,44,12.80
2015,11,17,08,45,12.80
2015,11,17,08,46,12.80
2015,11,17,08,47,12.80
2015,11,17,08,48,12.80
2015,11,17,08,49,12.90
2015,11,17,08,50,12.90
2015,11,17,08,51,12.90
2015,11,17,08,52,12.90
2015,11,17,08,53,13.00
2015,11,17,08,54,13.00
2015,11,17,08,55,12.90
2015,11,17,08,56,12.90
2015,11,17,08,57,12.90
2015,11,17,08,58,12.90
2015,11,17,08,59,12.90
2015,11,17,09,00,12.90
2015,11,17,09,01,12.90
2015,11,17,09,02,12.90
2015,11,17,09,03,12.90
2015,11,17,09,04,12.80
2015,11,17,09,05,12.80
2015,11,17,09,06,12.80
2015,11,17,09,07,12.80
2015,11,17,09,08,12.80
2015,11,17,09,09,12.80
2015,11,17,09,10,12.80
2015,11,17,09,11,12.80
2015,11,17,09,12,12.70
2015,11,17,09,13,12.70
2015,11,17,09,14,12.70
2015,11,17,09,15,12.70
2015,11,17,09,16,12.70
2015,11,17,09,17,12.70
2015,11,17,09,18,12.70
2015,11,17,09,19,12.70
2015,11,17,09,20,12.70
2015,11,17,09,21,12.70
2015,11,17,09,22,12.70
2015,11,17,09,23,12.70
2015,11,17,09,24,12.70
2015,11,17,09,25,12.70
2015,11,17,09,26,12.70
2015,11,17,09,27,12.70
2015,11,17,09,28,12.70
2015,11,17,09,29,12.70
2015,11,17,09,30,12.70
2015,11,17,09,31,12.70
2015,11,17,09,32,12.70
2015,11,17,09,33,12.70
2015,11,17,09,34,12.70
2015,11,17,09,35,12.80
2015,11,17,09,36,12.70
2015,11,17,09,37,12.80
2015,11,17,09,38,12.80
2015,11,17,09,39,12.80
2015,11,17,09,40,12.80
2015,11,17,09,41,12.80
2015,11,17,09,42,12.80
2015,11,17,09,43,12.80
2015,11,17,21,38,5.70
2015,11,17,21,39,5.70
2015,11,17,21,40,5.80
2015,11,17,21,41,5.80
2015,11,17,21,42,5.80
2015,11,17,22,19,6.10
2015,11,17,22,20,6.10
2015,11,17,22,21,6.10
2015,11,17,22,22,6.10
2015,11,17,22,23,6.10
2015,11,17,22,24,6.00
2015,11,17,22,25,6.00
2015,11,17,22,26,6.00
2015,11,17,22,27,5.90
2015,11,17,22,28,5.90
2015,11,17,22,29,5.90
2015,11,17,22,30,5.90
2015,11,17,22,31,5.90
2015,11,17,22,32,5.90
2015,11,17,22,33,5.90
2015,11,17,22,34,5.90
2015,11,17,22,35,5.90
2015,11,17,22,36,5.90
2015,11,17,22,37,5.90
2015,11,17,22,38,5.90
2015,11,17,22,39,5.90
2015,11,17,22,40,5.90
2015,11,17,22,41,5.90
2015,11,17,22,42,5.90
2015,11,17,22,43,5.90
2015,11,17,22,44,5.90
2015,11,17,22,45,5.90
2015,11,17,22,46,5.90
2015,11,17,22,47,5.90
2015,11,17,22,48,5.90
2015,11,17,22,49,5.90
2015,11,17,22,50,5.90
2015,11,17,22,51,5.90
2015,11,17,22,52,5.90
2015,11,17,22,53,5.90
2015,11,17,22,54,5.90
2015,11,17,22,55,5.90
2015,11,17,22,56,5.80
2015,11,17,22,57,5.80
2015,11,17,22,58,5.90
2015,11,17,22,59,5.90
2015,11,17,23,00,5.90
2015,11,17,23,01,6.00
2015,11,17,23,02,6.00
2015,11,17,23,03,6.00
2015,11,17,23,04,6.00
2015,11,17,23,05,6.10
2015,11,17,23,06,6.10
2015,11,17,23,07,6.10
2015,11,17,23,08,6.10
2015,11,17,23,09,6.10
2015,11,17,23,10,6.10
2015,11,17,23,11,6.10
2015,11,17,23,12,6.10
2015,11,17,23,13,6.20
2015,11,17,23,14,6.20
2015,11,17,23,15,6.20
2015,11,17,23,16,6.10
2015,11,17,23,17,6.20
2015,11,17,23,18,6.20
2015,11,17,23,19,6.20
2015,11,17,23,20,6.20
2015,11,17,23,21,6.20
2015,11,17,23,22,6.20
2015,11,17,23,23,6.20
2015,11,17,23,24,6.20
2015,11,17,23,25,6.30
2015,11,17,23,26,6.30
2015,11,17,23,27,6.30
2015,11,17,23,28,6.30
2015,11,17,23,29,6.40
2015,11,17,23,30,6.50
2015,11,17,23,31,6.50
2015,11,17,23,32,6.50
2015,11,17,23,33,6.60
2015,11,17,23,34,6.60
2015,11,17,23,35,6.60
2015,11,17,23,36,6.60
2015,11,17,23,37,6.70
2015,11,17,23,38,6.70
2015,11,17,23,39,6.70
2015,11,17,23,40,6.70
2015,11,17,23,41,6.70
2015,11,17,23,42,6.70
2015,11,17,23,43,6.70
2015,11,17,23,44,6.70
2015,11,17,23,45,6.70
2015,11,17,23,46,6.70
2015,11,17,23,47,6.70
2015,11,17,23,48,6.60
2015,11,17,23,49,6.60
2015,11,17,23,50,6.50
2015,11,17,23,51,6.50
2015,11,17,23,52,6.40
2015,11,17,23,53,6.40
2015,11,17,23,54,6.40
2015,11,17,23,55,6.40
2015,11,17,23,56,6.30
2015,11,17,23,57,6.30
2015,11,17,23,58,6.30
2015,11,17,23,59,6.30
